Location: Heidgraben
(53.7081°N, 9.6576°E)
Time: 10:12:06
(UTC+00:00)

Helios 1A - Pass Details

Date: 05 July 2020
Orbit: 587 x 600 km, 98.2° (Epoch: 01 August)

Event Time Altitude Azimuth Distance (km) Brightness Sun altitude
Exits shadow 23:24:56 22° 184° (S) 1,289 4.1 -13.6°
Maximum altitude 23:27:26 60° 258° (WSW) 681 3.2 -13.6°
Drops below altitude 10° 23:31:35 10° 339° (NNW) 1,928 6.7 -13.6°
Sets 23:33:47 0° 343° (NNW) 2,835 7.9 -13.6°
